Regional Weather Roundup
Issued by NWS

Home | Current Version | Previous Version | Graphics & Text | Print | Product List | Glossary Off
Versions: 1 2 3 4 5 6 7 8 9 10 11 12 13 14 15 16 17 18 19 20 21 22 23 24 25 26 27 28 29 30 31 32 33 34 35 36 37 38 39 40 41 42 43 44 45 46 47 48 49 50

000
ASUS43 KFSD 231310
RWRSD

WEATHER ROUNDUP FOR SOUTH DAKOTA
NATIONAL WEATHER SERVICE SIOUX FALLS SD
800 AM CDT TUE SEP 23 2014

NOTE: "FAIR" INDICATES FEW OR NO CLOUDS BELOW 12,000 FEET WITH NO
SIGNIFICANT WEATHER AND/OR OBSTRUCTIONS TO VISIBILITY.


SDZ001>005-009-010-012>017-231400-
NORTHWEST AND NORTH CENTRAL SOUTH DAKOTA

CITY           SKY/WX    TMP DP  RH WIND       PRES   REMARKS
BUFFALO          N/A     58  55  90 SE7       29.84S
FAITH            N/A     56  54  93 SE8       29.91R
MOBRIDGE       CLOUDY    63  56  78 S14       29.93R
$$

SDZ012>016-024>037-041>051-057-063-072>074-231400-
SOUTHWEST AND SOUTH CENTRAL SOUTH DAKOTA

CITY           SKY/WX    TMP DP  RH WIND       PRES   REMARKS
RAPID CTY ARPT MOCLDY    58  53  84 CALM      29.91R
PIERRE         PTCLDY    58  52  80 SE14      29.92F
CUSTER         CLOUDY    56  46  69 NW3       30.02S
ELLSWORTH AFB  CLOUDY    60  56  87 S3        29.91R
PHILIP         MOCLDY    55  52  89 E3        29.90S
PINE RIDGE     PTCLDY    52  49  89 W7        29.93S
WINNER         PTSUNNY   60  54  80 S18G26    29.96R
$$

SDZ004>011-016>023-039-040-231400-
NORTHEAST SOUTH DAKOTA

CITY           SKY/WX    TMP DP  RH WIND       PRES   REMARKS
ABERDEEN       LGT RAIN  60  56  86 S12       30.02R
WATERTOWN      CLOUDY    56  50  80 SE9       30.08R
SISSETON         N/A     50  49  96 SE6       30.06R
$$

SDZ017-020-022-023-036>040-048>070-231400-
SOUTHEAST SOUTH DAKOTA

CITY           SKY/WX    TMP DP  RH WIND       PRES   REMARKS
SIOUX FALLS    LGT RAIN  58  53  84 S10       30.13R
HURON          CLOUDY    60  54  80 S12G20    30.03R
CHAMBERLAIN    CLOUDY    58  54  86 SE20G25   29.97S
MITCHELL       LGT RAIN  58  57  97 S16       30.06S
YANKTON        CLOUDY    55  54  94 SE10      30.12S
$$

ABBREVIATIONS USED IN REMARKS
   TC - TEMPERATURE IN CELSIUS
  WCI - WIND CHILL INDEX
   HX - HEAT INDEX
  VSB - VISIBILITY



USA.gov is the U.S. government's official web portal to all federal, state and local government web resources and services.